• In Austria
  • List of Countries
  • For 7 days
  • Water Temperature
  • Satellite Maps
  • Weather Map
  • News
  • Weather Widgets
  • user-avatar
    Login

    Hourly Weather Benguela

    Today, 18 December, Monday

    Time Temperature Precipitation Wind Pressure Humidity
    00:00 +28°C° 0.2 mm 2 mps 759 mmHg 84%
    01:00 +28°C° 0 mm 2 mps 758 mmHg 85%
    02:00 +28°C° 0 mm 1 mps 758 mmHg 85%
    03:00 +27°C° 0 mm 1 mps 758 mmHg 86%
    04:00 +27°C° 0 mm 1 mps 758 mmHg 86%
    05:00 +28°C° 0 mm 1 mps 758 mmHg 85%
    06:00 +28°C° 0 mm 1 mps 758 mmHg 84%
    07:00 +28°C° 0 mm 1 mps 759 mmHg 81%
    08:00 +30°C° 0 mm 1 mps 758 mmHg 75%
    09:00 +31°C° 0 mm 2 mps 758 mmHg 70%
    10:00 +32°C° 0 mm 2 mps 758 mmHg 64%
    11:00 +34°C° 0 mm 3 mps 758 mmHg 61%
    12:00 +35°C° 0 mm 3 mps 757 mmHg 58%
    13:00 +33°C° 0 mm 3 mps 757 mmHg 64%
    14:00 +33°C° 0 mm 3 mps 757 mmHg 65%
    15:00 +33°C° 0 mm 3 mps 756 mmHg 66%
    16:00 +33°C° 0 mm 4 mps 756 mmHg 67%
    17:00 +32°C° 0 mm 4 mps 756 mmHg 71%
    18:00 +29°C° 0 mm 3 mps 757 mmHg 76%
    19:00 +28°C° 0 mm 3 mps 757 mmHg 81%
    20:00 +28°C° 0 mm 3 mps 757 mmHg 83%
    21:00 +28°C° 0 mm 2 mps 758 mmHg 85%
    22:00 +27°C° 0 mm 2 mps 758 mmHg 88%
    23:00 +27°C° 0 mm 2 mps 758 mmHg 89%

    Tomorrow, 19 December, Tuesday

    Time Temperature Precipitation Wind Pressure Humidity
    00:00 +27°C° 0 mm 2 mps 758 mmHg 90%
    01:00 +26°C° 0 mm 2 mps 758 mmHg 92%
    02:00 +26°C° 0 mm 2 mps 757 mmHg 92%
    03:00 +26°C° 0 mm 1 mps 757 mmHg 92%
    04:00 +26°C° 0 mm 1 mps 757 mmHg 92%
    05:00 +27°C° 0 mm 1 mps 757 mmHg 91%
    06:00 +27°C° 0 mm 1 mps 758 mmHg 90%
    07:00 +27°C° 0 mm 1 mps 758 mmHg 89%
    08:00 +29°C° 0 mm 1 mps 758 mmHg 82%
    09:00 +30°C° 0 mm 1 mps 758 mmHg 75%
    10:00 +31°C° 0 mm 2 mps 758 mmHg 68%
    11:00 +33°C° 0 mm 3 mps 758 mmHg 66%
    12:00 +34°C° 0 mm 3 mps 757 mmHg 64%
    13:00 +34°C° 0 mm 4 mps 757 mmHg 61%
    14:00 +34°C° 0 mm 4 mps 757 mmHg 63%
    15:00 +33°C° 0 mm 4 mps 756 mmHg 65%
    16:00 +33°C° 0 mm 4 mps 756 mmHg 67%
    17:00 +31°C° 0 mm 3 mps 757 mmHg 72%
    18:00 +29°C° 0 mm 3 mps 757 mmHg 78%
    19:00 +28°C° 0 mm 2 mps 758 mmHg 83%
    20:00 +28°C° 0.1 mm 2 mps 758 mmHg 85%
    21:00 +28°C° 0.1 mm 1 mps 759 mmHg 86%
    22:00 +28°C° 0.1 mm 1 mps 759 mmHg 88%
    23:00 +27°C° 0.3 mm 1 mps 759 mmHg 89%

    Day after tomorrow, 20 December, Wednesday

    Time Temperature Precipitation Wind Pressure Humidity
    00:00 +25°C° 0.3 mm 0 mps 759 mmHg 89%
    01:00 +25°C° 0.3 mm 0 mps 758 mmHg 90%
    02:00 +25°C° 0.1 mm 0 mps 758 mmHg 90%
    03:00 +25°C° 0.1 mm 0 mps 758 mmHg 90%
    04:00 +25°C° 0.1 mm 0 mps 757 mmHg 91%
    05:00 +25°C° 0 mm 0 mps 758 mmHg 89%
    06:00 +25°C° 0 mm 0 mps 758 mmHg 88%
    07:00 +26°C° 0 mm 0 mps 758 mmHg 86%
    08:00 +28°C° 0.1 mm 1 mps 759 mmHg 82%
    09:00 +29°C° 0.1 mm 1 mps 759 mmHg 77%
    10:00 +30°C° 0.1 mm 1 mps 759 mmHg 72%
    11:00 +30°C° 0.1 mm 1 mps 759 mmHg 69%
    12:00 +30°C° 0.1 mm 2 mps 759 mmHg 67%
    13:00 +30°C° 0.1 mm 2 mps 758 mmHg 64%
    14:00 +30°C° 0.1 mm 2 mps 758 mmHg 64%
    15:00 +30°C° 0.1 mm 1 mps 758 mmHg 64%
    16:00 +29°C° 0.1 mm 1 mps 757 mmHg 65%
    17:00 +29°C° 0 mm 1 mps 758 mmHg 67%
    18:00 +28°C° 0 mm 1 mps 758 mmHg 70%
    19:00 +28°C° 0 mm 1 mps 759 mmHg 72%
    20:00 +28°C° 0 mm 1 mps 759 mmHg 74%
    21:00 +27°C° 0 mm 1 mps 759 mmHg 76%
    22:00 +27°C° 0 mm 1 mps 760 mmHg 78%
    23:00 +27°C° 0 mm 2 mps 759 mmHg 79%

    21 December, Thursday

    Time Temperature Precipitation Wind Pressure Humidity
    00:00 +27°C° 0 mm 2 mps 759 mmHg 79%
    01:00 +27°C° 0 mm 2 mps 759 mmHg 79%
    02:00 +26°C° 0 mm 2 mps 758 mmHg 80%
    03:00 +26°C° 0 mm 2 mps 758 mmHg 81%
    04:00 +26°C° 0 mm 2 mps 758 mmHg 81%
    05:00 +26°C° 0 mm 2 mps 759 mmHg 80%
    06:00 +27°C° 0 mm 2 mps 759 mmHg 78%
    07:00 +27°C° 0 mm 2 mps 759 mmHg 76%
    08:00 +28°C° 0 mm 2 mps 759 mmHg 72%
    09:00 +29°C° 0 mm 2 mps 760 mmHg 67%
    10:00 +31°C° 0 mm 2 mps 760 mmHg 62%
    11:00 +31°C° 0 mm 2 mps 759 mmHg 58%
    12:00 +33°C° 0 mm 3 mps 759 mmHg 55%
    13:00 +34°C° 0 mm 4 mps 758 mmHg 52%
    14:00 +34°C° 0 mm 4 mps 758 mmHg 52%
    15:00 +34°C° 0 mm 4 mps 757 mmHg 52%
    16:00 +34°C° 0 mm 4 mps 757 mmHg 52%
    17:00 +32°C° 0 mm 4 mps 757 mmHg 59%
    18:00 +30°C° 0 mm 3 mps 757 mmHg 65%
    19:00 +28°C° 0 mm 3 mps 758 mmHg 71%
    20:00 +28°C° 0 mm 2 mps 758 mmHg 74%
    21:00 +27°C° 0 mm 2 mps 759 mmHg 76%
    22:00 +27°C° 0 mm 2 mps 759 mmHg 78%
    23:00 +27°C° 0 mm 2 mps 759 mmHg 80%

    22 December, Friday

    Time Temperature Precipitation Wind Pressure Humidity
    00:00 +26°C° 0 mm 2 mps 759 mmHg 82%
    01:00 +26°C° 0 mm 2 mps 759 mmHg 84%
    02:00 +26°C° 0 mm 2 mps 758 mmHg 84%
    03:00 +26°C° 0 mm 2 mps 758 mmHg 84%
    04:00 +25°C° 0 mm 2 mps 758 mmHg 85%
    05:00 +26°C° 0 mm 2 mps 758 mmHg 82%
    06:00 +27°C° 0 mm 2 mps 759 mmHg 79%
    07:00 +27°C° 0 mm 2 mps 759 mmHg 75%
    08:00 +29°C° 0 mm 2 mps 759 mmHg 66%
    09:00 +31°C° 0 mm 2 mps 759 mmHg 57%
    10:00 +34°C° 0 mm 3 mps 759 mmHg 48%
    11:00 +35°C° 0 mm 3 mps 758 mmHg 48%
    12:00 +35°C° 0 mm 4 mps 758 mmHg 47%
    13:00 +36°C° 0 mm 5 mps 757 mmHg 46%
    14:00 +35°C° 0 mm 5 mps 757 mmHg 49%
    15:00 +34°C° 0 mm 5 mps 756 mmHg 51%
    16:00 +34°C° 0 mm 5 mps 756 mmHg 54%
    17:00 +32°C° 0 mm 4 mps 756 mmHg 59%
    18:00 +30°C° 0 mm 4 mps 757 mmHg 65%
    19:00 +28°C° 0 mm 3 mps 757 mmHg 70%
    20:00 +28°C° 0 mm 3 mps 758 mmHg 73%
    21:00 +27°C° 0 mm 2 mps 758 mmHg 75%
    22:00 +27°C° 0 mm 2 mps 759 mmHg 78%
    23:00 +27°C° 0 mm 2 mps 759 mmHg 79%

    23 December, Saturday

    Time Temperature Precipitation Wind Pressure Humidity
    00:00 +26°C° 0 mm 2 mps 758 mmHg 81%
    01:00 +26°C° 0 mm 1 mps 758 mmHg 83%
    02:00 +26°C° 0 mm 1 mps 757 mmHg 84%
    03:00 +26°C° 0 mm 1 mps 757 mmHg 86%
    04:00 +25°C° 0 mm 1 mps 757 mmHg 88%
    05:00 +26°C° 0 mm 1 mps 757 mmHg 86%
    06:00 +26°C° 0 mm 1 mps 758 mmHg 84%
    07:00 +27°C° 0 mm 1 mps 758 mmHg 83%
    08:00 +29°C° 0 mm 1 mps 758 mmHg 73%
    09:00 +31°C° 0 mm 2 mps 758 mmHg 64%
    10:00 +34°C° 0 mm 2 mps 758 mmHg 55%
    11:00 +34°C° 0 mm 3 mps 758 mmHg 55%
    12:00 +35°C° 0 mm 4 mps 757 mmHg 54%
    13:00 +35°C° 0 mm 4 mps 757 mmHg 54%
    14:00 +34°C° 0 mm 4 mps 756 mmHg 57%
    15:00 +34°C° 0 mm 5 mps 756 mmHg 60%
    16:00 +33°C° 0 mm 5 mps 756 mmHg 63%
    17:00 +32°C° 0 mm 4 mps 756 mmHg 68%
    18:00 +29°C° 0 mm 4 mps 757 mmHg 73%
    19:00 +28°C° 0 mm 3 mps 757 mmHg 78%
    20:00 +27°C° 0 mm 3 mps 758 mmHg 80%
    21:00 +27°C° 0 mm 2 mps 758 mmHg 82%
    22:00 +27°C° 0 mm 2 mps 759 mmHg 84%
    23:00 +26°C° 0 mm 2 mps 758 mmHg 85%
    Show more